This is the latest recevied weather packets stored in our database for station/object N1ORT. If no packets are shown the sender has not sent any weather packets the latest 10 day(s).
| Time | Temp. | Humidity | Pressure | Rain* | Wind** | Luminosity | Snow |
|---|---|---|---|---|---|---|---|
| 1777118135 | 3.33° C | 97% | 1017.8 hPa | 0 mm | - | 109 W/m² | - |
| 1777117831 | 2.78° C | 98% | 1017.6 hPa | 0 mm | - | 76 W/m² | - |
| 1777117528 | 1.67° C | 98% | 1017.4 hPa | 0 mm | - | 92 W/m² | - |
| 1777117227 | 1.67° C | 98% | 1017.6 hPa | 0 mm | - | 41 W/m² | - |
| 1777116926 | 1.11° C | 99% | 1017.4 hPa | 0 mm | - | 39 W/m² | - |
| 1777116622 | 0.56° C | 99% | 1017.4 hPa | 0 mm | - | 37 W/m² | - |
| 1777116318 | 0.56° C | 99% | 1017 hPa | 0 mm | - | 37 W/m² | - |
| 1777116013 | 0° C | 99% | 1017.2 hPa | 0 mm | - | 44 W/m² | - |
| 1777115709 | 0° C | 99% | 1017.3 hPa | 0 mm | - | 39 W/m² | - |
| 1777115404 | 0° C | 99% | 1017.1 hPa | 0 mm | - | 64 W/m² | - |
| 1777115101 | -0.56° C | 99% | 1017.2 hPa | 0 mm | - | 42 W/m² | - |
| 1777114798 | -0.56° C | 99% | 1017 hPa | 0 mm | - | 38 W/m² | - |
| 1777114493 | -0.56° C | 99% | 1017 hPa | 0 mm | - | 33 W/m² | - |
| 1777114189 | -1.11° C | 99% | 1017.2 hPa | 0 mm | - | 39 W/m² | - |
| 1777113885 | -1.11° C | 99% | 1017 hPa | 0 mm | - | 26 W/m² | - |
| 1777113584 | -1.11° C | 99% | 1017 hPa | 0 mm | - | 26 W/m² | - |
| 1777113280 | -1.67° C | 99% | 1017 hPa | 0 mm | - | 30 W/m² | - |
| 1777112974 | -1.67° C | 99% | 1017 hPa | 0 mm | - | 21 W/m² | - |
| 1777112672 | -1.67° C | 99% | 1017 hPa | 0 mm | - | 23 W/m² | - |
| 1777112367 | -1.67° C | 99% | 1016.9 hPa | 0 mm | - | 17 W/m² | - |
| 1777112064 | -1.67° C | 99% | 1016.9 hPa | 0 mm | - | 14 W/m² | - |
| 1777111760 | -2.22° C | 99% | 1016.8 hPa | 0 mm | - | 13 W/m² | - |
| 1777111457 | -2.22° C | 99% | 1016.8 hPa | 0 mm | - | 10 W/m² | - |
| 1777111153 | -2.22° C | 99% | 1016.7 hPa | 0 mm | - | 7 W/m² | - |
| 1777110850 | -2.22° C | 99% | 1016.7 hPa | 0 mm | - | 5 W/m² | - |
* Rain latest hour (hover to see other rain measurements)
** Current wind speed in m/s (hover to see current wind gust speed)